Regional Weather Roundup
Issued by NWS Binghamton, NY

Home | Current Version | Previous Version | Text Only | Print | Product List | Glossary On
Versions: 1 2 3 4 5 6 7 8 9 10 11 12 13 14 15 16 17 18 19 20 21 22 23 24 25 26 27 28 29 30 31 32 33 34 35 36 37 38 39 40 41 42 43 44 45 46 47
000
ASUS41 KBGM 212210
RWRBGM
RWRBGM
BINGHAMTON REGIONAL WEATHER ROUNDUP
NATIONAL WEATHER SERVICE BINGHAMTON NY
600 PM EDT TUE OCT 21 2014

Note: "fair" indicates few or no clouds below 12,000 feet with no
significant weather and/or obstructions to visibility.

* = Station(s) that does not report precipitation, such as rain,
snow, etc, also no thunder or fog.

!NYZ009-015>018-022>025-036-037-044>046-055>057-062-212300
...CENTRAL NEW YORK...

CITY           SKY/WX    TMP DP  RH WIND       PRES   REMARKS
BINGHAMTON     CLOUDY    51  47  86 CALM      29.88R
CORTLAND       CLOUDY    52  48  87 N5        29.91R
DANSVILLE      CLOUDY    52  50  93 W5        29.92R
ELMIRA         CLOUDY    54  50  86 NE5       29.89R
ITHACA         CLOUDY    52  49  89 NW3       29.91R
HAMILTON       CLOUDY    52  48  87 N3        29.91R
MONTICELLO     MOCLDY    50  48  93 E5        29.89R
NORWICH        CLOUDY    52  48  87 N3        29.91R
ONEONTA        MOCLDY    50  48  93 CALM      29.89S
PENN YAN       CLOUDY    52  50  93 CALM      29.92R
ROME           CLOUDY    52  48  86 E6        29.94R
SIDNEY         DRIZZLE   52  52 100 CALM      29.89S
SYRACUSE       CLOUDY    51  49  92 CALM      29.92R
$$

!PAZ038>040-043-044-047-048-072-212300
...NORTHEAST PENNSYLVANIA...

CITY           SKY/WX    TMP DP  RH WIND       PRES   REMARKS
HAZLETON       CLOUDY    54  46  76 N5        29.89R
SCRANTON       CLOUDY    58  48  69 NE8       29.86R
TOWANDA*       PTCLDY    54  50  87 NE3       29.88S
$$
&&
KEY
WCI = WIND CHILL INDEX
VSB = VISIBILITY
HX  = HEAT INDEX
$$



USA.gov is the U.S. government's official web portal to all federal, state and local government web resources and services.